Index of /20260504/WXO-DD/model_gdps/15km/12/049
Name Last modified Size Description
Parent Directory -
20260504T12Z_MSC_GDPS_AirTemp_AGL-120m_LatLon0.15_PT049H.grib2 2026-05-04 16:11 903K
20260504T12Z_MSC_GDPS_AirTemp_AGL-2m_LatLon0.15_PT049H.grib2 2026-05-04 16:11 1.0M
20260504T12Z_MSC_GDPS_AirTemp_AGL-40m_LatLon0.15_PT049H.grib2 2026-05-04 16:11 804K
20260504T12Z_MSC_GDPS_AirTemp_AGL-80m_LatLon0.15_PT049H.grib2 2026-05-04 16:11 910K
20260504T12Z_MSC_GDPS_Albedo_Sfc_LatLon0.15_PT049H.grib2 2026-05-04 16:11 242K
20260504T12Z_MSC_GDPS_ConvectivePrecip-Accum_Sfc_LatLon0.15_PT049H.grib2 2026-05-04 16:11 2.9M
20260504T12Z_MSC_GDPS_DewPointDepression_AGL-2m_LatLon0.15_PT049H.grib2 2026-05-04 16:11 763K
20260504T12Z_MSC_GDPS_DewPoint_AGL-2m_LatLon0.15_PT049H.grib2 2026-05-04 16:11 607K
20260504T12Z_MSC_GDPS_DownwardLongwaveRadiationFlux-Accum_Sfc_LatLon0.15_PT049H.grib2 2026-05-04 16:11 823K
20260504T12Z_MSC_GDPS_DownwardShortwaveRadiationFlux-Accum_Sfc_LatLon0.15_PT049H.grib2 2026-05-04 16:11 1.0M
20260504T12Z_MSC_GDPS_FreezingRain-Accum1h_Sfc_LatLon0.15_PT049H.grib2 2026-05-04 16:11 38K
20260504T12Z_MSC_GDPS_FreezingRain-Accum_Sfc_LatLon0.15_PT049H.grib2 2026-05-04 16:11 232K
20260504T12Z_MSC_GDPS_IcePellets-Accum1h_Sfc_LatLon0.15_PT049H.grib2 2026-05-04 16:11 10K
20260504T12Z_MSC_GDPS_IcePellets-Accum_Sfc_LatLon0.15_PT049H.grib2 2026-05-04 16:11 72K
20260504T12Z_MSC_GDPS_LatentHeatNetFlux_Sfc_LatLon0.15_PT049H.grib2 2026-05-04 16:11 554K
20260504T12Z_MSC_GDPS_NetLongwaveRadiationFlux-Accum_Sfc_LatLon0.15_PT049H.grib2 2026-05-04 16:11 1.1M
20260504T12Z_MSC_GDPS_NetShortwaveRadiationFlux-Accum_Sfc_LatLon0.15_PT049H.grib2 2026-05-04 16:11 1.0M
20260504T12Z_MSC_GDPS_O3MixingRatio_Sfc_LatLon0.15_PT049H.grib2 2026-05-04 17:17 1.9M
20260504T12Z_MSC_GDPS_O3_EAtm_LatLon0.15_PT049H.grib2 2026-05-04 17:17 2.5M
20260504T12Z_MSC_GDPS_PlanetaryBoundaryLayerHeight_Sfc_LatLon0.15_PT049H.grib2 2026-05-04 16:11 2.5M
20260504T12Z_MSC_GDPS_Precip-Accum1h_Sfc_LatLon0.15_PT049H.grib2 2026-05-04 16:11 3.3M
20260504T12Z_MSC_GDPS_Precip-Accum_Sfc_LatLon0.15_PT049H.grib2 2026-05-04 16:11 4.5M
20260504T12Z_MSC_GDPS_PrecipRate_Sfc_LatLon0.15_PT049H.grib2 2026-05-04 16:11 3.0M
20260504T12Z_MSC_GDPS_Pressure_MSL_LatLon0.15_PT049H.grib2 2026-05-04 16:11 722K
20260504T12Z_MSC_GDPS_Pressure_Sfc_LatLon0.15_PT049H.grib2 2026-05-04 16:11 1.1M
20260504T12Z_MSC_GDPS_RadiativeTemp_Sfc_LatLon0.15_PT049H.grib2 2026-05-04 16:11 493K
20260504T12Z_MSC_GDPS_Rain-Accum1h_Sfc_LatLon0.15_PT049H.grib2 2026-05-04 16:11 1.7M
20260504T12Z_MSC_GDPS_Rain-Accum_Sfc_LatLon0.15_PT049H.grib2 2026-05-04 16:11 3.5M
20260504T12Z_MSC_GDPS_RelativeHumidity_AGL-2m_LatLon0.15_PT049H.grib2 2026-05-04 16:11 1.0M
20260504T12Z_MSC_GDPS_Runoff-Accum_Sfc_LatLon0.15_PT049H.grib2 2026-05-04 16:11 123K
20260504T12Z_MSC_GDPS_SensibleHeatNetFlux_Sfc_LatLon0.15_PT049H.grib2 2026-05-04 16:11 656K
20260504T12Z_MSC_GDPS_Snow-Accum1h_Sfc_LatLon0.15_PT049H.grib2 2026-05-04 16:11 1.0M
20260504T12Z_MSC_GDPS_Snow-Accum_Sfc_LatLon0.15_PT049H.grib2 2026-05-04 16:11 1.9M
20260504T12Z_MSC_GDPS_SnowDepth_Sfc_LatLon0.15_PT049H.grib2 2026-05-04 16:11 1.7M
20260504T12Z_MSC_GDPS_SoilTemp_DBS-0to10cm_LatLon0.15_PT049H.grib2 2026-05-04 16:11 506K
20260504T12Z_MSC_GDPS_SoilTemp_Sfc_LatLon0.15_PT049H.grib2 2026-05-04 16:11 573K
20260504T12Z_MSC_GDPS_SoilVolumetricWaterContent_DBS-0to10cm_LatLon0.15_PT049H.grib2 2026-05-04 16:11 593K
20260504T12Z_MSC_GDPS_SoilVolumetricWaterContent_DBS-0to1cm_LatLon0.15_PT049H.grib2 2026-05-04 16:11 652K
20260504T12Z_MSC_GDPS_SpecificHumidity_AGL-120m_LatLon0.15_PT049H.grib2 2026-05-04 16:11 1.1M
20260504T12Z_MSC_GDPS_SpecificHumidity_AGL-2m_LatLon0.15_PT049H.grib2 2026-05-04 16:11 1.2M
20260504T12Z_MSC_GDPS_SpecificHumidity_AGL-40m_LatLon0.15_PT049H.grib2 2026-05-04 16:11 1.1M
20260504T12Z_MSC_GDPS_SpecificHumidity_AGL-80m_LatLon0.15_PT049H.grib2 2026-05-04 16:11 1.1M
20260504T12Z_MSC_GDPS_SpecificHumidity_Sfc_LatLon0.15_PT049H.grib2 2026-05-04 16:11 677K
20260504T12Z_MSC_GDPS_TotalCloudCover_Sfc_LatLon0.15_PT049H.grib2 2026-05-04 16:11 826K
20260504T12Z_MSC_GDPS_UVIndex-ClearSky_Sfc_LatLon0.15_PT049H.grib2 2026-05-04 17:17 1.0M
20260504T12Z_MSC_GDPS_UVIndex_Sfc_LatLon0.15_PT049H.grib2 2026-05-04 17:17 1.5M
20260504T12Z_MSC_GDPS_UpwardLongwaveRadiationFlux_NTAtm_LatLon0.15_PT049H.grib2 2026-05-04 16:11 841K
20260504T12Z_MSC_GDPS_WindDir_AGL-10m_LatLon0.15_PT049H.grib2 2026-05-04 16:11 1.3M
20260504T12Z_MSC_GDPS_WindDir_AGL-120m_LatLon0.15_PT049H.grib2 2026-05-04 16:11 1.3M
20260504T12Z_MSC_GDPS_WindDir_AGL-40m_LatLon0.15_PT049H.grib2 2026-05-04 16:11 1.4M
20260504T12Z_MSC_GDPS_WindDir_AGL-80m_LatLon0.15_PT049H.grib2 2026-05-04 16:11 1.3M
20260504T12Z_MSC_GDPS_WindDir_IsbL-0700_LatLon0.15_PT049H.grib2 2026-05-04 16:11 1.6M
20260504T12Z_MSC_GDPS_WindGust-Max_AGL-10m_LatLon0.15_PT049H.grib2 2026-05-04 16:11 2.2M
20260504T12Z_MSC_GDPS_WindGust-Min_AGL-10m_LatLon0.15_PT049H.grib2 2026-05-04 16:11 2.2M
20260504T12Z_MSC_GDPS_WindGust_AGL-10m_LatLon0.15_PT049H.grib2 2026-05-04 16:11 2.2M
20260504T12Z_MSC_GDPS_WindSpeed_AGL-10m_LatLon0.15_PT049H.grib2 2026-05-04 16:11 1.1M
20260504T12Z_MSC_GDPS_WindSpeed_AGL-120m_LatLon0.15_PT049H.grib2 2026-05-04 16:11 1.2M
20260504T12Z_MSC_GDPS_WindSpeed_AGL-40m_LatLon0.15_PT049H.grib2 2026-05-04 16:11 1.2M
20260504T12Z_MSC_GDPS_WindSpeed_AGL-80m_LatLon0.15_PT049H.grib2 2026-05-04 16:11 1.2M
20260504T12Z_MSC_GDPS_WindSpeed_IsbL-0700_LatLon0.15_PT049H.grib2 2026-05-04 16:11 1.5M
20260504T12Z_MSC_GDPS_WindU_AGL-10m_LatLon0.15_PT049H.grib2 2026-05-04 16:11 1.6M
20260504T12Z_MSC_GDPS_WindU_AGL-120m_LatLon0.15_PT049H.grib2 2026-05-04 16:11 966K
20260504T12Z_MSC_GDPS_WindU_AGL-40m_LatLon0.15_PT049H.grib2 2026-05-04 16:11 962K
20260504T12Z_MSC_GDPS_WindU_AGL-80m_LatLon0.15_PT049H.grib2 2026-05-04 16:11 966K
20260504T12Z_MSC_GDPS_WindU_IsbL-0700_LatLon0.15_PT049H.grib2 2026-05-04 16:11 1.2M
20260504T12Z_MSC_GDPS_WindV_AGL-10m_LatLon0.15_PT049H.grib2 2026-05-04 16:11 1.3M
20260504T12Z_MSC_GDPS_WindV_AGL-120m_LatLon0.15_PT049H.grib2 2026-05-04 16:11 965K
20260504T12Z_MSC_GDPS_WindV_AGL-40m_LatLon0.15_PT049H.grib2 2026-05-04 16:11 960K
20260504T12Z_MSC_GDPS_WindV_AGL-80m_LatLon0.15_PT049H.grib2 2026-05-04 16:11 965K
20260504T12Z_MSC_GDPS_WindV_IsbL-0700_LatLon0.15_PT049H.grib2 2026-05-04 16:11 1.2M